This is the latest recevied weather packets stored in our database for station/object AG7BI. If no packets are shown the sender has not sent any weather packets the latest 10 day(s).
| Time | Temp. | Humidity | Pressure | Rain* | Wind** | Luminosity | Snow |
|---|---|---|---|---|---|---|---|
| 1777509352 | 14.44° C | 66% | 1023 hPa | 0 mm | - | - | - |
| 1777509052 | 14.44° C | 65% | 1022.9 hPa | 0 mm | - | - | - |
| 1777508752 | 14.44° C | 65% | 1022.9 hPa | 0 mm | - | - | - |
| 1777508452 | 14.44° C | 65% | 1022.9 hPa | 0 mm | - | - | - |
| 1777508152 | 14.44° C | 64% | 1022.9 hPa | 0 mm | - | - | - |
| 1777507852 | 14.44° C | 67% | 1022.9 hPa | 0 mm | - | - | - |
| 1777507552 | 14.44° C | 65% | 1022.9 hPa | 0 mm | - | - | - |
| 1777507252 | 13.89° C | 65% | 1022.9 hPa | 0 mm | - | - | - |
| 1777506952 | 13.89° C | 67% | 1022.9 hPa | 0 mm | - | - | - |
| 1777506652 | 13.89° C | 65% | 1023.1 hPa | 0 mm | - | - | - |
| 1777506352 | 13.89° C | 67% | 1023 hPa | 0 mm | - | - | - |
| 1777506052 | 13.89° C | 66% | 1022.9 hPa | 0 mm | - | - | - |
| 1777505752 | 13.89° C | 66% | 1023.3 hPa | 0 mm | - | - | - |
| 1777505452 | 13.89° C | 67% | 1023.3 hPa | 0 mm | - | - | - |
| 1777505153 | 13.89° C | 67% | 1023.1 hPa | 0 mm | - | - | - |
| 1777504852 | 13.89° C | 67% | 1023.2 hPa | 0 mm | - | - | - |
| 1777504552 | 13.89° C | 65% | 1023.5 hPa | 0 mm | - | - | - |
| 1777504252 | 13.89° C | 65% | 1023.5 hPa | 0 mm | - | - | - |
| 1777503952 | 13.89° C | 65% | 1023.3 hPa | 0 mm | - | - | - |
| 1777503652 | 13.89° C | 66% | 1023.4 hPa | 0 mm | - | - | - |
| 1777503352 | 13.89° C | 65% | 1023.5 hPa | 0 mm | - | - | - |
| 1777503052 | 13.89° C | 66% | 1023.7 hPa | 0 mm | - | - | - |
| 1777502752 | 13.89° C | 67% | 1023.5 hPa | 0 mm | - | - | - |
| 1777502452 | 13.89° C | 66% | 1023.9 hPa | 0 mm | - | - | - |
| 1777502152 | 13.89° C | 64% | 1024.1 hPa | 0 mm | - | - | - |
* Rain latest hour (hover to see other rain measurements)
** Current wind speed in m/s (hover to see current wind gust speed)